Orenge 7 — JL6148 — position and weather

sailwx.info

Track history (hours):
 
Tides and Currents Weather Stations Pressure Air Temp Water Temp Dewpoint Dewpoint Depression Visibility Wind Speed Wind Dir Waves Ship Positions

Orenge 7

Last reported at 2014-Oct-20 14:33 UTC. Time now 2014-Oct-21 05:25 UTC.
Position N 34°37' E 134°58'.

Length 163 m; draft 4.9 m.

Type: Passenger vessel. MMSI: 431500186.

Date/timePositionNaut miles runAvg speedWind from/ knotsBaromVisibWave heightAir tempDewpointWater temp
2014-Oct-20 14:33N 34°37' E 134°58'1817.9
2014-Oct-20 13:33N 34°37' E 135°19'5 5.3
2014-Oct-20 12:33N 34°37' E 135°26'0 0.0
2014-Oct-20 11:27N 34°37' E 135°26'0 0.0
2014-Oct-20 10:27N 34°37' E 135°26'0 0.0
2014-Oct-20 09:15N 34°37' E 135°26'0 0.0
2014-Oct-20 08:33N 34°37' E 135°26'0 0.0
2014-Oct-20 07:27N 34°37' E 135°26'0 0.0
2014-Oct-20 06:33N 34°37' E 135°26'0 0.0
2014-Oct-20 05:33N 34°37' E 135°26'0 0.0
2014-Oct-20 04:33N 34°37' E 135°26'0 0.0
2014-Oct-20 03:27N 34°37' E 135°26'0 0.0
2014-Oct-20 02:33N 34°37' E 135°26'0 0.0
2014-Oct-20 01:27N 34°37' E 135°26'0 0.0
2014-Oct-20 00:27N 34°37' E 135°26'0 0.0
2014-Oct-19 23:33N 34°37' E 135°26'0 0.0
2014-Oct-19 22:33N 34°37' E 135°26'0 0.0
2014-Oct-19 21:27N 34°37' E 135°26'7 7.7
2014-Oct-19 20:33N 34°36' E 135°18'1717.2
2014-Oct-19 19:33N 34°36' E 134°57'1 0.0
2014-Oct-18 14:33N 34°37' E 134°57'1818.0
2014-Oct-18 13:33N 34°37' E 135°18'6 2.7
2014-Oct-18 11:20N 34°37' E 135°26'0 0.0
2014-Oct-18 10:32N 34°37' E 135°26'0 0.0
2014-Oct-18 09:32N 34°37' E 135°26'0 0.0
2014-Oct-18 08:32N 34°37' E 135°26'0 0.0
2014-Oct-18 07:14N 34°37' E 135°26'0 0.0
2014-Oct-18 06:32N 34°37' E 135°26'0 0.0
2014-Oct-18 05:32N 34°37' E 135°26'0 0.0
2014-Oct-18 04:32N 34°37' E 135°26'0 0.0
2014-Oct-18 03:20N 34°37' E 135°26'0 0.0
2014-Oct-18 02:32N 34°37' E 135°26'0 0.0
2014-Oct-18 01:32N 34°37' E 135°26'0 0.0
2014-Oct-18 00:26N 34°37' E 135°26'0 0.0
2014-Oct-17 23:32N 34°37' E 135°26'0 0.0
2014-Oct-17 22:32N 34°37' E 135°26'0 0.0
2014-Oct-17 21:32N 34°37' E 135°26'6 6.2
2014-Oct-17 20:33N 34°36' E 135°19'1918.6
2014-Oct-17 19:33N 34°36' E 134°56'2 0.1
2014-Oct-16 14:33N 34°37' E 134°58'1717.4
2014-Oct-16 13:33N 34°37' E 135°19'6 5.4
2014-Oct-16 12:29N 34°37' E 135°26'0 0.0
2014-Oct-16 11:05N 34°37' E 135°26'0 0.0
2014-Oct-16 10:29N 34°37' E 135°26'0 0.0
2014-Oct-16 08:17N 34°37' E 135°26'0 0.0
2014-Oct-16 07:29N 34°37' E 135°26'0 0.0
2014-Oct-16 06:32N 34°37' E 135°26'0 0.0
2014-Oct-16 05:32N 34°37' E 135°26'0 0.0
2014-Oct-16 04:32N 34°37' E 135°26'0 0.0
2014-Oct-16 03:32N 34°37' E 135°26'0 0.0
2014-Oct-16 02:26N 34°37' E 135°26'0 0.0
2014-Oct-16 01:14N 34°37' E 135°26'0 0.0
2014-Oct-16 00:32N 34°37' E 135°26'0 0.0
2014-Oct-15 23:32N 34°37' E 135°26'0 0.0
2014-Oct-15 22:32N 34°37' E 135°26'0 0.0
2014-Oct-15 21:32N 34°37' E 135°26'5 5.2
2014-Oct-15 20:33N 34°36' E 135°20'1817.9
2014-Oct-15 19:33N 34°36' E 134°58'1 0.0
2014-Oct-14 14:33N 34°37' E 134°57'1817.9
2014-Oct-14 13:33N 34°37' E 135°18'6 6.2
2014-Oct-14 12:33N 34°37' E 135°26'0 0.0
2014-Oct-14 11:34N 34°37' E 135°26'0 0.0
2014-Oct-14 10:27N 34°37' E 135°26'0 0.0
2014-Oct-14 09:34N 34°37' E 135°26'0 0.0
2014-Oct-14 08:27N 34°37' E 135°26'0 0.0
2014-Oct-14 07:34N 34°37' E 135°26'0 0.0
2014-Oct-14 06:34N 34°37' E 135°26'0 0.0
2014-Oct-14 05:22N 34°37' E 135°26'0 0.0
2014-Oct-14 04:33N 34°37' E 135°26'3 3.2
2014-Oct-14 03:33N 34°37' E 135°22'1716.8
2014-Oct-14 02:33N 34°37' E 135°02'1110.9
2014-Oct-14 01:33N 34°33' E 134°49'3 0.1
2014-Oct-12 14:33N 34°35' E 134°52'2121.5
2014-Oct-12 13:33N 34°36' E 135°18'7 6.3
2014-Oct-12 12:31N 34°37' E 135°26'0 0.0
2014-Oct-12 11:25N 34°37' E 135°26'0 0.0
2014-Oct-12 10:31N 34°37' E 135°26'0 0.0
2014-Oct-12 09:31N 34°37' E 135°26'0 0.0
2014-Oct-12 08:31N 34°37' E 135°26'0 0.0
2014-Oct-12 07:31N 34°37' E 135°26'0 0.0
2014-Oct-12 06:31N 34°37' E 135°26'0 0.0
2014-Oct-12 05:31N 34°37' E 135°26'0 0.0
2014-Oct-12 04:31N 34°37' E 135°26'0 0.0
2014-Oct-12 03:25N 34°37' E 135°26'0 0.0
2014-Oct-12 02:31N 34°37' E 135°26'0 0.0
2014-Oct-12 01:31N 34°37' E 135°26'0 0.0
2014-Oct-12 00:31N 34°37' E 135°26'0 0.0
2014-Oct-11 23:31N 34°37' E 135°26'0 0.0
2014-Oct-11 22:31N 34°37' E 135°26'0 0.0
2014-Oct-11 21:25N 34°37' E 135°26'5 5.6
2014-Oct-11 20:33N 34°36' E 135°20'1717.0
2014-Oct-11 19:33N 34°37' E 134°59'  
Track history (hours):
 
Tides and Currents Weather Stations Pressure Air Temp Water Temp Dewpoint Dewpoint Depression Visibility Wind Speed Wind Dir Waves Ship Positions

Orenge 7

Last reported at 2014-Oct-20 14:33 UTC. Time now 2014-Oct-21 05:25 UTC.
Position N 34°37' E 134°58'.

Length 163 m; draft 4.9 m.

Type: Passenger vessel. MMSI: 431500186.

Date/timePositionNaut miles runAvg speedWind from/ knotsBaromVisibWave heightAir tempDewpointWater temp
2014-Oct-20 14:33N 34°37' E 134°58'1817.9
2014-Oct-20 13:33N 34°37' E 135°19'5 5.3
2014-Oct-20 12:33N 34°37' E 135°26'0 0.0
2014-Oct-20 11:27N 34°37' E 135°26'0 0.0
2014-Oct-20 10:27N 34°37' E 135°26'0 0.0
2014-Oct-20 09:15N 34°37' E 135°26'0 0.0
2014-Oct-20 08:33N 34°37' E 135°26'0 0.0
2014-Oct-20 07:27N 34°37' E 135°26'0 0.0
2014-Oct-20 06:33N 34°37' E 135°26'0 0.0
2014-Oct-20 05:33N 34°37' E 135°26'0 0.0
2014-Oct-20 04:33N 34°37' E 135°26'0 0.0
2014-Oct-20 03:27N 34°37' E 135°26'0 0.0
2014-Oct-20 02:33N 34°37' E 135°26'0 0.0
2014-Oct-20 01:27N 34°37' E 135°26'0 0.0
2014-Oct-20 00:27N 34°37' E 135°26'0 0.0
2014-Oct-19 23:33N 34°37' E 135°26'0 0.0
2014-Oct-19 22:33N 34°37' E 135°26'0 0.0
2014-Oct-19 21:27N 34°37' E 135°26'7 7.7
2014-Oct-19 20:33N 34°36' E 135°18'1717.2
2014-Oct-19 19:33N 34°36' E 134°57'1 0.0
2014-Oct-18 14:33N 34°37' E 134°57'1818.0
2014-Oct-18 13:33N 34°37' E 135°18'6 2.7
2014-Oct-18 11:20N 34°37' E 135°26'0 0.0
2014-Oct-18 10:32N 34°37' E 135°26'0 0.0
2014-Oct-18 09:32N 34°37' E 135°26'0 0.0
2014-Oct-18 08:32N 34°37' E 135°26'0 0.0
2014-Oct-18 07:14N 34°37' E 135°26'0 0.0
2014-Oct-18 06:32N 34°37' E 135°26'0 0.0
2014-Oct-18 05:32N 34°37' E 135°26'0 0.0
2014-Oct-18 04:32N 34°37' E 135°26'0 0.0
2014-Oct-18 03:20N 34°37' E 135°26'0 0.0
2014-Oct-18 02:32N 34°37' E 135°26'0 0.0
2014-Oct-18 01:32N 34°37' E 135°26'0 0.0
2014-Oct-18 00:26N 34°37' E 135°26'0 0.0
2014-Oct-17 23:32N 34°37' E 135°26'0 0.0
2014-Oct-17 22:32N 34°37' E 135°26'0 0.0
2014-Oct-17 21:32N 34°37' E 135°26'6 6.2
2014-Oct-17 20:33N 34°36' E 135°19'1918.6
2014-Oct-17 19:33N 34°36' E 134°56'2 0.1
2014-Oct-16 14:33N 34°37' E 134°58'1717.4
2014-Oct-16 13:33N 34°37' E 135°19'6 5.4
2014-Oct-16 12:29N 34°37' E 135°26'0 0.0
2014-Oct-16 11:05N 34°37' E 135°26'0 0.0
2014-Oct-16 10:29N 34°37' E 135°26'0 0.0
2014-Oct-16 08:17N 34°37' E 135°26'0 0.0
2014-Oct-16 07:29N 34°37' E 135°26'0 0.0
2014-Oct-16 06:32N 34°37' E 135°26'0 0.0
2014-Oct-16 05:32N 34°37' E 135°26'0 0.0
2014-Oct-16 04:32N 34°37' E 135°26'0 0.0
2014-Oct-16 03:32N 34°37' E 135°26'0 0.0
2014-Oct-16 02:26N 34°37' E 135°26'0 0.0
2014-Oct-16 01:14N 34°37' E 135°26'0 0.0
2014-Oct-16 00:32N 34°37' E 135°26'0 0.0
2014-Oct-15 23:32N 34°37' E 135°26'0 0.0
2014-Oct-15 22:32N 34°37' E 135°26'0 0.0
2014-Oct-15 21:32N 34°37' E 135°26'5 5.2
2014-Oct-15 20:33N 34°36' E 135°20'1817.9
2014-Oct-15 19:33N 34°36' E 134°58'1 0.0
2014-Oct-14 14:33N 34°37' E 134°57'1817.9
2014-Oct-14 13:33N 34°37' E 135°18'6 6.2
2014-Oct-14 12:33N 34°37' E 135°26'0 0.0
2014-Oct-14 11:34N 34°37' E 135°26'0 0.0
2014-Oct-14 10:27N 34°37' E 135°26'0 0.0
2014-Oct-14 09:34N 34°37' E 135°26'0 0.0
2014-Oct-14 08:27N 34°37' E 135°26'0 0.0
2014-Oct-14 07:34N 34°37' E 135°26'0 0.0
2014-Oct-14 06:34N 34°37' E 135°26'0 0.0
2014-Oct-14 05:22N 34°37' E 135°26'0 0.0
2014-Oct-14 04:33N 34°37' E 135°26'3 3.2
2014-Oct-14 03:33N 34°37' E 135°22'1716.8
2014-Oct-14 02:33N 34°37' E 135°02'1110.9
2014-Oct-14 01:33N 34°33' E 134°49'3 0.1
2014-Oct-12 14:33N 34°35' E 134°52'2121.5
2014-Oct-12 13:33N 34°36' E 135°18'7 6.3
2014-Oct-12 12:31N 34°37' E 135°26'0 0.0
2014-Oct-12 11:25N 34°37' E 135°26'0 0.0
2014-Oct-12 10:31N 34°37' E 135°26'0 0.0
2014-Oct-12 09:31N 34°37' E 135°26'0 0.0
2014-Oct-12 08:31N 34°37' E 135°26'0 0.0
2014-Oct-12 07:31N 34°37' E 135°26'0 0.0
2014-Oct-12 06:31N 34°37' E 135°26'0 0.0
2014-Oct-12 05:31N 34°37' E 135°26'0 0.0
2014-Oct-12 04:31N 34°37' E 135°26'0 0.0
2014-Oct-12 03:25N 34°37' E 135°26'0 0.0
2014-Oct-12 02:31N 34°37' E 135°26'0 0.0
2014-Oct-12 01:31N 34°37' E 135°26'0 0.0
2014-Oct-12 00:31N 34°37' E 135°26'0 0.0
2014-Oct-11 23:31N 34°37' E 135°26'0 0.0
2014-Oct-11 22:31N 34°37' E 135°26'0 0.0
2014-Oct-11 21:25N 34°37' E 135°26'5 5.6
2014-Oct-11 20:33N 34°36' E 135°20'1717.0
2014-Oct-11 19:33N 34°37' E 134°59'  

Dump ship's entire track history